Location: Azul
(36.7830°S, 59.8500°W)
Time: 08:11:53
(UTC-03:00)

ISS - Pass Details

Date: 06 April 2020
Orbit: 417 x 419 km, 51.6° (Epoch: 31 May)

Event Time Altitude Azimuth Distance (km) Brightness Sun altitude
Exits shadow 06:38:25 - 216° (SW) 2,312 -0.4 -8.7°
Reaches altitude 10° 06:41:06 10° 190° (S) 1,537 -1.0 -8.1°
Maximum altitude 06:42:57 14° 158° (SSE) 1,325 -1.0 -7.8°
Drops below altitude 10° 06:44:49 10° 125° (SE) 1,533 0.0 -7.4°
Sets 06:47:45 0° 97° (E) 2,396 2.2 -6.8°
